NORTHEAST SUFFOLK  -  Wind Advisory Wind Advisory     Wind Advisory Wind Advisory     Rip Current Statement Rip Current Statement     Rip Current Statement Rip Current Statement        NORTHERN NASSAU  -  Wind Advisory Wind Advisory     Wind Advisory Wind Advisory     Coastal Flood Statement Coastal Flood Statement     Rip Current Statement Rip Current Statement     Rip Current Statement Rip Current Statement        NORTHERN QUEENS  -  Wind Advisory Wind Advisory     Coastal Flood Statement Coastal Flood Statement     Rip Current Statement Rip Current Statement     Rip Current Statement Rip Current Statement        NORTHWEST SUFFOLK  -  Wind Advisory Wind Advisory     Wind Advisory Wind Advisory     Rip Current Statement Rip Current Statement     Rip Current Statement Rip Current Statement        SOUTHEAST SUFFOLK  -  Wind Advisory Wind Advisory     Wind Advisory Wind Advisory     Rip Current Statement Rip Current Statement     Rip Current Statement Rip Current Statement        SOUTHERN NASSAU  -  Wind Advisory Wind Advisory     Wind Advisory Wind Advisory     Coastal Flood Statement Coastal Flood Statement     Rip Current Statement Rip Current Statement     Rip Current Statement Rip Current Statement        SOUTHERN QUEENS  -  Wind Advisory Wind Advisory     Coastal Flood Statement Coastal Flood Statement     Rip Current Statement Rip Current Statement     Rip Current Statement Rip Current Statement        SOUTHWEST SUFFOLK  -  Wind Advisory Wind Advisory     Wind Advisory Wind Advisory     Rip Current Statement Rip Current Statement     Rip Current Statement Rip Current Statement      

Active alerts

Northern Queens
  Details for Northern Queens Wind Advisory  +3 additional alerts
Southern Queens
  Details for Southern Queens Wind Advisory  +3 additional alerts
Northern Nassau
  Details for Northern Nassau Wind Advisory  +4 additional alerts
Southern Nassau
  Details for Southern Nassau Wind Advisory  +4 additional alerts
Northwest Suffolk
  Details for Northwest Suffolk Wind Advisory  +3 additional alerts
Southwest Suffolk
  Details for Southwest Suffolk Wind Advisory  +3 additional alerts
Northeast Suffolk
  Details for Northeast Suffolk Wind Advisory  +3 additional alerts
Southeast Suffolk
  Details for Southeast Suffolk Wind Advisory  +3 additional alerts


WXM80 ListenWXM80 Stop

You find our weather info also at:

UK Metoffice

WeatherCloud

Weather Underground

Northeastern Weather Network

AWEKAS

Citizen Weather Observer Program (CWOP)

HAMweather, WeatherForYou, PWS Weather


Weather Underground History page Text

Daily Summary for December 2, 2017 Units:  English    Metric   Both
« Previous Day
Next Day »
Daily Weekly Monthly Yearly Custom
  High: Low: Average:
Temperature: 47.4 °F 35.2 °F 41.1 °F
Dew Point: 39.2 °F 30.9 °F 34.6 °F
Humidity: 90 % 68 % 78 %
Wind Speed: 8.4 mph 0.0 mph 1.1 mph
Wind Gust: 12.7 mph - -
Wind:- - ENE
Pressure: 30.33 in 30.23 in -
Precipitation: 0.00 in    
Historical Graphs
 
 
Tabular Data for December 2, 2017
Time Temperature Dew Point Pressure Wind Wind Speed Wind Gust Humidity Rainfall Rate (Hourly)
00:04 42.2 °F 33.5 °F 30.28 in North 7.5 mph 11.5 mph 71 % 0.00 in
00:09 42.2 °F 33.5 °F 30.28 in NNE 4.7 mph 9.2 mph 71 % 0.00 in
00:14 42.1 °F 33.4 °F 30.29 in NNE 6.1 mph 10.0 mph 71 % 0.00 in
00:29 42.0 °F 33.3 °F 30.28 in NNE 8.3 mph 12.0 mph 71 % 0.00 in
00:44 41.9 °F 33.5 °F 30.29 in NNE 8.4 mph 12.7 mph 72 % 0.00 in
00:50 41.9 °F 33.2 °F 30.29 in North 5.4 mph 11.5 mph 71 % 0.00 in
01:00 41.9 °F 33.2 °F 30.29 in North 6.4 mph 8.1 mph 71 % 0.00 in
01:05 41.8 °F 33.1 °F 30.28 in NNE 7.4 mph 11.5 mph 71 % 0.00 in
01:10 41.8 °F 33.4 °F 30.28 in NNE 4.9 mph 8.1 mph 72 % 0.00 in
01:15 41.8 °F 32.7 °F 30.28 in NE 4.9 mph 11.5 mph 70 % 0.00 in
01:26 41.8 °F 33.1 °F 30.29 in NNE 6.2 mph 9.0 mph 71 % 0.00 in
01:31 41.7 °F 33.3 °F 30.28 in NNE 5.8 mph 5.8 mph 72 % 0.00 in
01:37 41.7 °F 33.3 °F 30.28 in North 7.0 mph 10.4 mph 72 % 0.00 in
01:42 41.6 °F 33.2 °F 30.28 in NNE 3.8 mph 3.8 mph 72 % 0.00 in
01:52 41.4 °F 32.7 °F 30.28 in NE 4.2 mph 7.0 mph 71 % 0.00 in
02:02 41.5 °F 33.1 °F 30.29 in NE 3.0 mph 5.0 mph 72 % 0.00 in
02:07 41.5 °F 33.5 °F 30.30 in NNE 4.6 mph 9.2 mph 73 % 0.00 in
02:12 41.5 °F 33.5 °F 30.30 in NNE 2.2 mph 6.9 mph 73 % 0.00 in
02:17 41.4 °F 33.4 °F 30.30 in NE 6.3 mph 10.4 mph 73 % 0.00 in
02:27 41.4 °F 33.7 °F 30.30 in NE 3.1 mph 7.0 mph 74 % 0.00 in
02:33 41.3 °F 33.6 °F 30.30 in NE 5.9 mph 9.0 mph 74 % 0.00 in
02:38 41.3 °F 33.6 °F 30.30 in NE 3.3 mph 5.8 mph 74 % 0.00 in
02:48 41.2 °F 33.5 °F 30.30 in North 4.8 mph 8.1 mph 74 % 0.00 in
02:53 41.1 °F 33.4 °F 30.30 in NE 1.9 mph 3.5 mph 74 % 0.00 in
03:03 41.0 °F 33.3 °F 30.30 in North 2.9 mph 5.0 mph 74 % 0.00 in
03:08 41.0 °F 33.3 °F 30.30 in NNW 1.1 mph 4.6 mph 74 % 0.00 in
03:13 40.9 °F 33.6 °F 30.30 in NNW 2.2 mph 5.8 mph 75 % 0.00 in
03:18 40.8 °F 33.2 °F 30.30 in North 1.2 mph 4.0 mph 74 % 0.00 in
03:23 40.7 °F 33.1 °F 30.30 in North 0.4 mph 3.5 mph 74 % 0.00 in
03:29 40.7 °F 33.1 °F 30.30 in NNE 3.0 mph 5.0 mph 74 % 0.00 in
03:49 40.3 °F 33.3 °F 30.32 in NNW 0.6 mph 4.6 mph 76 % 0.00 in
03:55 40.1 °F 33.1 °F 30.31 in NW 0.4 mph 1.2 mph 76 % 0.00 in
04:00 40.0 °F 33.0 °F 30.31 in NW 1.2 mph 3.5 mph 76 % 0.00 in
04:10 39.7 °F 33.1 °F 30.30 in North 2.6 mph 6.0 mph 77 % 0.00 in
04:15 39.6 °F 33.0 °F 30.31 in North 0.4 mph 2.3 mph 77 % 0.00 in
04:20 39.5 °F 32.9 °F 30.30 in North 1.4 mph 3.5 mph 77 % 0.00 in
04:31 39.2 °F 32.9 °F 30.31 in North 1.0 mph 3.0 mph 78 % 0.00 in
04:41 39.1 °F 32.8 °F 30.31 in North 2.0 mph 4.0 mph 78 % 0.00 in
04:46 38.9 °F 32.6 °F 30.31 in North 2.0 mph 5.0 mph 78 % 0.00 in
04:51 38.9 °F 32.9 °F 30.31 in North 1.0 mph 4.0 mph 79 % 0.00 in
04:56 38.8 °F 32.8 °F 30.30 in NNE 2.0 mph 7.0 mph 79 % 0.00 in
05:01 38.7 °F 32.7 °F 30.30 in NNE 2.8 mph 4.0 mph 79 % 0.00 in
05:06 38.7 °F 33.1 °F 30.30 in NNE 1.0 mph 4.0 mph 80 % 0.00 in
05:11 38.7 °F 33.1 °F 30.30 in North 2.0 mph 4.0 mph 80 % 0.00 in
05:16 38.7 °F 33.1 °F 30.30 in North 2.0 mph 4.0 mph 80 % 0.00 in
05:26 38.5 °F 32.9 °F 30.30 in NNE 1.0 mph 5.0 mph 80 % 0.00 in
05:31 38.4 °F 32.8 °F 30.30 in Calm   2.0 mph 80 % 0.00 in
05:41 38.1 °F 32.5 °F 30.31 in Calm   1.0 mph 80 % 0.00 in
05:46 38.0 °F 32.4 °F 30.31 in Calm     80 % 0.00 in
05:51 37.8 °F 32.2 °F 30.31 in Calm   1.0 mph 80 % 0.00 in
05:56 37.6 °F 32.0 °F 30.31 in Calm     80 % 0.00 in
06:01 37.5 °F 31.9 °F 30.30 in Calm     80 % 0.00 in
06:06 37.3 °F 32.0 °F 30.30 in Calm     81 % 0.00 in
06:11 37.1 °F 31.8 °F 30.31 in Calm     81 % 0.00 in
06:16 37.0 °F 31.7 °F 30.31 in Calm     81 % 0.00 in
06:21 36.9 °F 31.6 °F 30.31 in Calm     81 % 0.00 in
06:26 36.8 °F 31.8 °F 30.31 in Calm     82 % 0.00 in
06:36 36.6 °F 31.6 °F 30.31 in East 0.9 mph 2.3 mph 82 % 0.00 in
06:41 36.5 °F 31.8 °F 30.31 in Calm     83 % 0.00 in
06:52 36.2 °F 31.5 °F 30.32 in Calm     83 % 0.00 in
06:57 36.1 °F 31.4 °F 30.31 in Calm     83 % 0.00 in
07:02 36.0 °F 31.3 °F 30.32 in East 0.4 mph 1.2 mph 83 % 0.00 in
07:07 35.9 °F 31.2 °F 30.32 in Calm     83 % 0.00 in
07:12 35.8 °F 31.1 °F 30.32 in Calm     83 % 0.00 in
07:22 35.6 °F 31.2 °F 30.32 in Calm     84 % 0.00 in
07:27 35.5 °F 31.1 °F 30.32 in Calm     84 % 0.00 in
07:32 35.3 °F 30.9 °F 30.33 in Calm     84 % 0.00 in
07:37 35.3 °F 30.9 °F 30.32 in Calm   1.2 mph 84 % 0.00 in
07:47 35.2 °F 31.4 °F 30.32 in Calm     86 % 0.00 in
07:57 35.2 °F 31.4 °F 30.33 in Calm     86 % 0.00 in
08:02 35.3 °F 31.8 °F 30.33 in Calm     87 % 0.00 in
08:13 35.6 °F 32.4 °F 30.33 in Calm     88 % 0.00 in
08:18 35.7 °F 32.5 °F 30.32 in Calm     88 % 0.00 in
08:23 35.9 °F 33.0 °F 30.32 in Calm     89 % 0.00 in
08:28 36.2 °F 33.3 °F 30.32 in Calm     89 % 0.00 in
08:33 36.6 °F 33.7 °F 30.32 in Calm     89 % 0.00 in
08:38 37.0 °F 34.3 °F 30.32 in Calm     90 % 0.00 in
08:48 37.7 °F 35.0 °F 30.32 in East 0.4 mph 1.2 mph 90 % 0.00 in
08:53 38.2 °F 35.5 °F 30.32 in Calm   1.2 mph 90 % 0.00 in
08:58 38.9 °F 35.9 °F 30.32 in East 0.1 mph 1.2 mph 89 % 0.00 in
09:03 39.7 °F 36.4 °F 30.32 in East 0.2 mph 2.0 mph 88 % 0.00 in
09:08 40.5 °F 36.6 °F 30.32 in East 0.1 mph 1.2 mph 86 % 0.00 in
09:18 41.9 °F 37.4 °F 30.32 in East 0.9 mph 2.3 mph 84 % 0.00 in
09:23 42.5 °F 37.4 °F 30.33 in East 0.7 mph 3.5 mph 82 % 0.00 in
09:28 43.2 °F 37.8 °F 30.33 in East 1.3 mph 2.3 mph 81 % 0.00 in
09:34 43.8 °F 38.0 °F 30.32 in NNE 1.8 mph 3.0 mph 80 % 0.00 in
09:44 44.7 °F 38.3 °F 30.32 in NE 0.1 mph 3.5 mph 78 % 0.00 in
09:49 45.0 °F 38.2 °F 30.33 in NE 1.2 mph 2.3 mph 77 % 0.00 in
09:54 45.4 °F 38.3 °F 30.33 in NE 1.7 mph 3.5 mph 76 % 0.00 in
09:59 45.5 °F 37.7 °F 30.33 in ENE 1.6 mph 3.5 mph 74 % 0.00 in
10:04 45.7 °F 37.9 °F 30.33 in ENE 1.3 mph 3.0 mph 74 % 0.00 in
10:09 45.8 °F 37.6 °F 30.32 in ENE 2.1 mph 3.5 mph 73 % 0.00 in
10:15 46.0 °F 38.2 °F 30.33 in ENE 2.4 mph 3.0 mph 74 % 0.00 in
10:20 46.2 °F 37.7 °F 30.32 in NNE 1.2 mph 3.5 mph 72 % 0.00 in
10:21 46.2 °F 37.7 °F 30.32 in NE 1.0 mph 3.0 mph 72 % 0.00 in
10:26 46.3 °F 37.8 °F 30.32 in NE 1.0 mph 4.0 mph 72 % 0.00 in
10:31 46.4 °F 38.2 °F 30.32 in NE 2.0 mph 5.0 mph 73 % 0.00 in
10:36 46.5 °F 37.6 °F 30.32 in NE 1.0 mph 4.0 mph 71 % 0.00 in
10:51 46.5 °F 37.6 °F 30.31 in NE 3.0 mph 5.0 mph 71 % 0.00 in
10:56 46.3 °F 37.0 °F 30.31 in Calm   3.0 mph 70 % 0.00 in
11:06 46.3 °F 38.1 °F 30.31 in NE 2.0 mph 4.0 mph 73 % 0.00 in
11:11 46.2 °F 38.0 °F 30.31 in Calm   2.0 mph 73 % 0.00 in
11:16 46.2 °F 38.4 °F 30.31 in NE 1.0 mph 4.0 mph 74 % 0.00 in
11:21 46.1 °F 38.3 °F 30.30 in NE 2.0 mph 3.0 mph 74 % 0.00 in
11:27 46.0 °F 37.8 °F 30.29 in NNE 3.4 mph 4.6 mph 73 % 0.00 in
11:41 46.0 °F 38.5 °F 30.29 in NE 2.0 mph 6.0 mph 75 % 0.00 in
11:46 46.1 °F 38.6 °F 30.28 in NNE 2.0 mph 6.0 mph 75 % 0.00 in
11:56 46.1 °F 38.3 °F 30.28 in NE 1.0 mph 4.0 mph 74 % 0.00 in
12:06 46.3 °F 38.5 °F 30.27 in NNE 4.0 mph 5.0 mph 74 % 0.00 in
12:10 46.4 °F 38.9 °F 30.28 in NE 4.3 mph 5.8 mph 75 % 0.00 in
12:20 46.7 °F 39.2 °F 30.27 in ENE 1.0 mph 3.5 mph 75 % 0.00 in
12:25 46.9 °F 38.7 °F 30.27 in ENE 0.5 mph 1.2 mph 73 % 0.00 in
12:35 46.9 °F 38.7 °F 30.26 in NE 1.9 mph 3.5 mph 73 % 0.00 in
12:45 46.9 °F 38.3 °F 30.26 in ENE 3.1 mph 3.5 mph 72 % 0.00 in
12:50 46.8 °F 38.2 °F 30.26 in ENE 0.6 mph 2.3 mph 72 % 0.00 in
12:55 46.8 °F 38.2 °F 30.26 in NNE 2.0 mph 4.0 mph 72 % 0.00 in
13:00 46.9 °F 38.7 °F 30.26 in ENE 2.0 mph 4.0 mph 73 % 0.00 in
13:05 47.0 °F 38.4 °F 30.26 in NNE 3.3 mph 5.0 mph 72 % 0.00 in
13:10 47.0 °F 37.7 °F 30.26 in ENE 1.3 mph 3.5 mph 70 % 0.00 in
13:21 47.2 °F 39.0 °F 30.25 in NNE 2.0 mph 4.0 mph 73 % 0.00 in
13:26 47.3 °F 38.7 °F 30.25 in NNE 2.0 mph 5.0 mph 72 % 0.00 in
13:31 47.4 °F 38.5 °F 30.25 in NNE 3.0 mph 4.6 mph 71 % 0.00 in
13:51 47.0 °F 37.7 °F 30.25 in NW 0.1 mph 2.3 mph 70 % 0.00 in
13:56 47.1 °F 37.8 °F 30.25 in NNE 2.6 mph 3.5 mph 70 % 0.00 in
14:06 47.0 °F 37.0 °F 30.25 in NE 0.5 mph 1.2 mph 68 % 0.00 in
14:12 46.9 °F 36.9 °F 30.25 in NNE 0.1 mph 1.2 mph 68 % 0.00 in
14:17 46.8 °F 37.2 °F 30.25 in NNE 0.1 mph 1.2 mph 69 % 0.00 in
14:23 46.6 °F 37.3 °F 30.25 in NNE 0.6 mph 2.3 mph 70 % 0.00 in
14:28 46.3 °F 36.7 °F 30.25 in NE 0.9 mph 2.3 mph 69 % 0.00 in
14:38 46.0 °F 36.0 °F 30.25 in NE 0.1 mph 1.2 mph 68 % 0.00 in
14:48 45.7 °F 36.8 °F 30.25 in Calm   1.2 mph 71 % 0.00 in
14:58 45.6 °F 36.7 °F 30.25 in NNE 0.2 mph 1.2 mph 71 % 0.00 in
15:03 45.5 °F 36.6 °F 30.25 in NNE 0.1 mph 1.0 mph 71 % 0.00 in
15:08 45.5 °F 37.0 °F 30.26 in NNE 0.8 mph 2.3 mph 72 % 0.00 in
15:13 45.4 °F 36.9 °F 30.25 in NNE 0.2 mph 2.3 mph 72 % 0.00 in
15:23 45.2 °F 36.7 °F 30.25 in NNE 0.1 mph 1.2 mph 72 % 0.00 in
15:29 45.2 °F 36.7 °F 30.25 in Calm     72 % 0.00 in
15:34 45.1 °F 36.6 °F 30.26 in Calm     72 % 0.00 in
15:41 45.1 °F 36.6 °F 30.25 in Calm     72 % 0.00 in
15:46 45.0 °F 36.5 °F 30.26 in Calm     72 % 0.00 in
15:51 44.9 °F 36.4 °F 30.26 in Calm     72 % 0.00 in
15:56 44.8 °F 36.7 °F 30.25 in Calm     73 % 0.00 in
16:01 44.6 °F 36.5 °F 30.26 in Calm     73 % 0.00 in
16:06 44.5 °F 36.0 °F 30.25 in Calm     72 % 0.00 in
16:10 44.4 °F 36.3 °F 30.26 in Calm     73 % 0.00 in
16:20 44.1 °F 36.0 °F 30.25 in Calm     73 % 0.00 in
16:25 43.9 °F 35.8 °F 30.25 in Calm     73 % 0.00 in
16:35 43.7 °F 36.0 °F 30.26 in Calm     74 % 0.00 in
16:40 43.6 °F 35.9 °F 30.26 in Calm     74 % 0.00 in
16:45 43.4 °F 36.0 °F 30.25 in Calm     75 % 0.00 in
16:50 43.2 °F 35.8 °F 30.26 in Calm     75 % 0.00 in
16:55 43.1 °F 35.7 °F 30.26 in Calm     75 % 0.00 in
17:00 43.0 °F 35.6 °F 30.26 in Calm     75 % 0.00 in
17:05 42.8 °F 35.8 °F 30.26 in Calm     76 % 0.00 in
17:10 42.6 °F 35.6 °F 30.26 in Calm     76 % 0.00 in
17:15 42.5 °F 35.5 °F 30.26 in Calm     76 % 0.00 in
17:20 42.3 °F 35.3 °F 30.26 in Calm     76 % 0.00 in
17:25 42.2 °F 35.2 °F 30.26 in Calm     76 % 0.00 in
17:30 42.1 °F 35.1 °F 30.26 in Calm     76 % 0.00 in
17:35 42.0 °F 35.3 °F 30.26 in Calm     77 % 0.00 in
17:51 41.7 °F 35.3 °F 30.26 in Calm     78 % 0.00 in
17:56 41.5 °F 35.2 °F 30.26 in Calm     78 % 0.00 in
18:06 41.3 °F 35.3 °F 30.26 in Calm     79 % 0.00 in
18:16 41.1 °F 34.8 °F 30.26 in Calm     78 % 0.00 in
18:26 41.0 °F 35.0 °F 30.26 in Calm     79 % 0.00 in
18:31 40.9 °F 34.9 °F 30.26 in Calm     79 % 0.00 in
18:36 40.8 °F 34.8 °F 30.26 in Calm     79 % 0.00 in
18:41 40.7 °F 35.0 °F 30.26 in Calm     80 % 0.00 in
18:56 40.5 °F 34.5 °F 30.26 in Calm     79 % 0.00 in
19:07 40.4 °F 34.7 °F 30.25 in Calm   1.2 mph 80 % 0.00 in
19:12 40.4 °F 34.7 °F 30.25 in Calm   1.2 mph 80 % 0.00 in
19:17 40.4 °F 34.7 °F 30.25 in Calm     80 % 0.00 in
19:22 40.3 °F 34.6 °F 30.25 in Calm     80 % 0.00 in
19:27 40.3 °F 34.6 °F 30.24 in Calm     80 % 0.00 in
19:32 40.3 °F 34.6 °F 30.24 in Calm     80 % 0.00 in
19:37 40.3 °F 34.6 °F 30.24 in Calm     80 % 0.00 in
19:53 40.1 °F 34.4 °F 30.24 in ESE 1.0 mph 2.3 mph 80 % 0.00 in
20:03 39.9 °F 34.2 °F 30.25 in ESE 0.6 mph 2.3 mph 80 % 0.00 in
20:08 39.8 °F 34.1 °F 30.24 in ESE 0.7 mph 2.3 mph 80 % 0.00 in
20:13 39.7 °F 34.0 °F 30.24 in ESE 0.9 mph 2.3 mph 80 % 0.00 in
20:18 39.6 °F 33.9 °F 30.24 in Calm   1.2 mph 80 % 0.00 in
20:28 39.3 °F 33.6 °F 30.23 in Calm   2.3 mph 80 % 0.00 in
20:33 39.2 °F 33.5 °F 30.23 in South 1.2 mph 3.5 mph 80 % 0.00 in
20:38 39.1 °F 33.5 °F 30.24 in Calm   2.3 mph 80 % 0.00 in
20:43 39.0 °F 33.4 °F 30.24 in Calm   1.2 mph 80 % 0.00 in
20:48 38.8 °F 33.2 °F 30.24 in South 0.4 mph 1.0 mph 80 % 0.00 in
20:54 38.8 °F 33.2 °F 30.24 in Calm   1.2 mph 80 % 0.00 in
20:59 38.6 °F 33.0 °F 30.24 in South 0.1 mph 1.2 mph 80 % 0.00 in
21:04 38.6 °F 33.3 °F 30.24 in Calm     81 % 0.00 in
21:09 38.4 °F 33.1 °F 30.24 in Calm     81 % 0.00 in
21:14 38.3 °F 33.0 °F 30.24 in Calm     81 % 0.00 in
21:19 38.2 °F 32.9 °F 30.24 in South 0.6 mph 2.3 mph 81 % 0.00 in
21:25 38.0 °F 32.7 °F 30.24 in Calm     81 % 0.00 in
21:30 38.0 °F 32.7 °F 30.24 in Calm     81 % 0.00 in
21:35 37.9 °F 32.9 °F 30.24 in Calm     82 % 0.00 in
21:40 37.8 °F 32.8 °F 30.24 in Calm     82 % 0.00 in
21:45 37.7 °F 32.7 °F 30.25 in Calm     82 % 0.00 in
21:50 37.6 °F 32.6 °F 30.25 in Calm   1.0 mph 82 % 0.00 in
21:55 37.5 °F 32.5 °F 30.26 in Calm     82 % 0.00 in
22:01 37.4 °F 32.4 °F 30.26 in Calm     82 % 0.00 in
22:11 37.1 °F 32.4 °F 30.25 in Calm     83 % 0.00 in
22:16 37.0 °F 32.3 °F 30.25 in Calm     83 % 0.00 in
22:21 36.9 °F 32.2 °F 30.26 in Calm     83 % 0.00 in
22:26 36.9 °F 32.2 °F 30.25 in Calm     83 % 0.00 in
22:31 36.7 °F 32.0 °F 30.25 in Calm     83 % 0.00 in
22:36 36.7 °F 32.3 °F 30.26 in Calm     84 % 0.00 in
22:46 36.5 °F 32.1 °F 30.26 in Calm   1.2 mph 84 % 0.00 in
22:51 36.4 °F 32.0 °F 30.26 in Calm   1.2 mph 84 % 0.00 in
23:01 36.3 °F 32.2 °F 30.25 in Calm     85 % 0.00 in
23:07 36.3 °F 32.2 °F 30.26 in Calm     85 % 0.00 in
23:11 36.3 °F 32.5 °F 30.26 in Calm     86 % 0.00 in
23:17 36.4 °F 32.6 °F 30.26 in Calm     86 % 0.00 in
23:22 36.4 °F 32.6 °F 30.25 in Calm     86 % 0.00 in
23:28 36.4 °F 32.6 °F 30.25 in Calm     86 % 0.00 in
23:33 36.4 °F 32.6 °F 30.26 in Calm     86 % 0.00 in
23:38 36.5 °F 32.7 °F 30.25 in Calm     86 % 0.00 in
23:43 36.5 °F 32.7 °F 30.25 in Calm     86 % 0.00 in
23:53 36.7 °F 33.2 °F 30.26 in Calm     87 % 0.00 in
23:58 36.8 °F 33.3 °F 30.26 in Calm     87 % 0.00 in
Crab Meadow Weather
Compliments of Weather Underground - 2.75 mb

Script developed by  Jim McMurry - jmcmurry@mwt.net Adapted for the template by  Wim van der Kuil - Leuven-Template.eu

Recycling: Americans threw away 38 billion plastic water bottles in 2006. A million and a half barrels of oil - enough to fuel 100,000 cars for a year - were used to produce the bottles.